Weather History for Jackson, WY

Change the Weather History Date:

Saturday, May 11, 2013

  Actual Average Record
Temperature  
Mean Temperature 50 °F -  
Max Temperature 69 °F 56 °F 80 °F (1960)
Min Temperature 32 °F 29 °F 16 °F (1981)
Degree Days  
Heating Degree Days 14    
Moisture  
Dew Point 29 °F    
Average Humidity 53    
Maximum Humidity 87    
Minimum Humidity 16    
Precipitation  
Precipitation 0.00 in - - ()
Sea Level Pressure  
Sea Level Pressure 30.38 in    
Wind  
Wind Speed 5 mph (NNW)    
Max Wind Speed 17 mph    
Max Gust Speed 23 mph    
Visibility 10 miles    
Events      
Averages and records for this station are not official NWS values.
T = Trace of Precipitation, MM = Missing Value Source: NWS Daily Summary

Daily Weather History Graph

Daily Weather History Graph

Search for Another Location

Airport:

Trip Planner

Search our weather history database for the weather conditions in past years. The results will help you decide how hot, cold, wet, or windy it might be!

Date:

Astronomy

May. 11, 2013 Rise Set
Actual Time 6:02 AM MDT 8:37 PM MDT
Civil Twilight 5:29 AM MDT 9:09 PM MDT
Nautical Twilight 4:48 AM MDT 9:51 PM MDT
Astronomical Twilight 4:02 AM MDT 10:37 PM MDT
Moon 7:11 AM MDT (5/11) 10:21 PM MDT (5/11)
Length of Visible Light 15h 40m
Length of Day
14h 35m
Waxing Crescent, 3% of the Moon is Illuminated
May 11
Waxing Crescent
May 17
First Quarter
May 24
Full
May 31
Last Quarter
Jun 8
New

Hourly Weather History & Observations

Time (MDT) Temp. Windchill Dew Point Humidity Pressure Visibility Wind Dir Wind Speed Gust Speed Precip Events Conditions
12:15 AM 44.6 °F 42.2 °F 28.4 °F 53% 30.39 in 10.0 mi North 4.6 mph - N/A   Clear
12:55 AM 39.2 °F 32.0 °F 28.4 °F 65% 30.40 in 10.0 mi North 11.5 mph - N/A   Clear
1:15 AM 37.4 °F 31.4 °F 28.4 °F 70% 30.41 in 10.0 mi NNW 8.1 mph - N/A   Clear
1:35 AM 39.2 °F 35.9 °F 30.2 °F 70% 30.41 in 10.0 mi NE 4.6 mph - N/A   Clear
1:55 AM 39.2 °F - 30.2 °F 70% 30.42 in 10.0 mi Calm Calm - N/A   Clear
2:35 AM 37.4 °F 31.4 °F 30.2 °F 75% 30.42 in 10.0 mi NNW 8.1 mph - N/A   Clear
2:55 AM 39.2 °F 35.0 °F 30.2 °F 70% 30.43 in 10.0 mi NNW 5.8 mph - N/A   Clear
3:15 AM 37.4 °F 32.8 °F 28.4 °F 70% 30.43 in 10.0 mi NNW 5.8 mph - N/A   Clear
3:35 AM 37.4 °F 33.8 °F 30.2 °F 75% 30.43 in 10.0 mi North 4.6 mph - N/A   Clear
3:55 AM 37.4 °F 33.8 °F 30.2 °F 75% 30.43 in 10.0 mi North 4.6 mph - N/A   Clear
4:15 AM 33.8 °F - 28.4 °F 81% 30.43 in 10.0 mi Calm Calm - N/A   Clear
4:35 AM 35.6 °F 31.7 °F 30.2 °F 81% 30.44 in 10.0 mi North 4.6 mph - N/A   Clear
4:55 AM 33.8 °F - 28.4 °F 81% 30.44 in - Calm Calm - N/A   Clear
5:15 AM 35.6 °F - 30.2 °F 81% 30.44 in - Calm Calm - N/A   Mostly Cloudy
5:35 AM 37.4 °F 34.9 °F 28.4 °F 70% 30.44 in 10.0 mi East 3.5 mph - N/A   Mostly Cloudy
5:55 AM 33.8 °F - 28.4 °F 81% 30.44 in 10.0 mi Calm Calm - N/A   Partly Cloudy
6:15 AM 33.8 °F 28.6 °F 28.4 °F 81% 30.44 in 10.0 mi North 5.8 mph - N/A   Clear
6:35 AM 32.0 °F 28.7 °F 28.4 °F 87% 30.44 in 10.0 mi NNE 3.5 mph - N/A   Clear
6:51 AM 32.0 °F - 28.4 °F 87% 30.45 in 10.0 mi Calm Calm - N/A   Clear
7:51 AM 41.0 °F - 30.2 °F 65% 30.45 in 10.0 mi Calm Calm - N/A   Clear
8:51 AM 46.4 °F - 30.2 °F 53% 30.44 in 10.0 mi Calm Calm - N/A   Clear
9:55 AM 51.8 °F - 30.2 °F 44% 30.42 in 10.0 mi SE 3.5 mph - N/A   Clear
10:55 AM 57.2 °F - 33.8 °F 41% 30.40 in 10.0 mi SW 3.5 mph - N/A   Clear
11:51 AM 64.4 °F - 32.0 °F 30% 30.38 in 10.0 mi SSW 8.1 mph - N/A   Clear
12:55 PM 64.4 °F - 28.4 °F 26% 30.35 in 10.0 mi SE 3.5 mph - N/A   Scattered Clouds
1:55 PM 66.2 °F - 28.4 °F 24% 30.33 in 10.0 mi West 11.5 mph 19.6 mph N/A   Scattered Clouds
2:53 PM 68.0 °F - 26.6 °F 21% 30.33 in 10.0 mi West 10.4 mph 16.1 mph N/A   Scattered Clouds
3:53 PM 69.8 °F - 24.8 °F 18% 30.31 in 10.0 mi West 17.3 mph 23.0 mph N/A   Scattered Clouds
4:54 PM 69.8 °F - 21.2 °F 16% 30.29 in 10.0 mi WSW 15.0 mph 19.6 mph N/A   Clear
5:51 PM 66.2 °F - 24.8 °F 21% 30.30 in 10.0 mi West 13.8 mph 17.3 mph N/A   Clear
6:56 PM 66.2 °F - 26.6 °F 23% 30.30 in 10.0 mi NNW 9.2 mph - N/A   Clear
7:52 PM 62.6 °F - 28.4 °F 27% 30.29 in 10.0 mi Calm Calm - N/A   Clear
8:51 PM 57.2 °F - 30.2 °F 36% 30.30 in 10.0 mi NW 3.5 mph - N/A   Clear
8:55 PM 57.2 °F - 30.2 °F 36% 30.30 in 10.0 mi Calm Calm - N/A   Overcast
9:15 PM 57.2 °F - 30.2 °F 36% 30.31 in 10.0 mi Calm Calm - N/A   Overcast
9:55 PM 57.2 °F - 30.2 °F 36% 30.31 in 10.0 mi East 4.6 mph - N/A   Mostly Cloudy
10:15 PM 57.2 °F - 30.2 °F 36% 30.32 in 10.0 mi West 5.8 mph - N/A   Partly Cloudy
10:35 PM 53.6 °F - 32.0 °F 44% 30.32 in 10.0 mi Calm Calm - N/A   Clear
10:55 PM 55.4 °F - 30.2 °F 38% 30.32 in 10.0 mi SSW 4.6 mph - N/A   Clear
11:15 PM 53.6 °F - 30.2 °F 41% 30.32 in 10.0 mi Calm Calm - N/A   Clear
11:35 PM 53.6 °F - 32.0 °F 44% 30.32 in 10.0 mi NE 3.5 mph - N/A   Clear
11:55 PM 51.8 °F - 30.2 °F 44% 30.32 in 10.0 mi WNW 3.5 mph - N/A   Partly Cloudy